Location: Unspecified
(0.0000°N, 0.0000°E)
Time: 02:45:35
(UTC+01:00)

Ariane H10+ - Visible Passes

Search period start: 14 February 2016 00:00
Search period end: 24 February 2016 00:00
Orbit: 317 x 31464 km, 6.9° (Epoch: 13 February)

Date Brightness Start Highest point End Pass type
(mag) Time Alt. Az. Time Alt. Az. Time Alt. Az.
15 Feb 7.1 13:41:04 10° W 15:40:44 77° SW 22:02:31 59° ENE visible
16 Feb 12.1 18:16:30 10° W 19:24:35 17° W 21:20:52 10° W visible
17 Feb 8.3 01:30:17 10° W 01:36:14 15° W 01:36:14 15° W visible
17 Feb 7.6 11:27:31 10° W 18:15:16 84° ESE 19:58:40 12° E visible
18 Feb 3.6 05:37:31 37° NE 05:37:31 37° NE 05:41:13 10° E visible
18 Feb 7.2 15:23:42 10° W 17:14:53 50° WSW 23:32:16 63° WNW visible
20 Feb 7.2 13:03:48 10° W 15:24:29 82° SSW 21:28:15 44° ENE visible
21 Feb 8.0 17:23:13 10° W 18:48:47 24° W 21:54:27 10° W visible
23 Feb 5.6 05:02:33 14° ENE 05:02:33 14° ENE 05:03:19 10° E visible
23 Feb 6.9 14:44:00 10° W 16:37:51 58° WSW 22:57:34 75° NNW visible
